STARLINK-3769, 52300

Orbit data source: Space-Track

STARLINK-3769, 52300 is a payload satellite owned by SpaceX/Seattle (US) in LEO that was launched on Thu, 21 Apr 2022 UTC via an FALCON 9 launch vehicle from the Air Force Eastern Test Range (AFETR). Payload-class satellites include a variety of spacecraft equipped with specific instruments for various scientific and technological missions. These include communications satellites like Starlink; space stations such as the ISS; scientific satellites like the Hubble; Earth observation satellites from companies like Planet Labs, Umbra, and HawkEye 360; GPS; miniature CubeSats for education and research; and military/defense satellites.

Loading next visibility...
Identifier
52300, 2022-041AR
Orbit
LEO
Country
Flag of USUS
Related business
Manufacturer
SpaceX/Seattle
Mission
Operational Commercial Communications
Bus & Motor
STARLINK, Unknown motor
Mass
297 kg wet, ~275 kg dry
Launch date (UTC)
2022-04-21 (4 years ago)
Launch vehicle
FALCON 9
Launch site
Air Force Eastern Test Range (AFETR)
Object type
Payload
Rocket body
Debris
Shape & HBR
Box + 1 Pan, 10.1 m
Radar Cross Section
11.087 m², Large (>1 m²)

Expand to show TLE details & history
Last TLE update: 18 hours ago

TLE from 18 hours ago
0 STARLINK-3769
1 52300U 22041AR  26175.17168466 -.00000092  00000-0  12332-4 0  9996
2 52300  53.1605 340.9654 0001167  90.5709 269.5416 15.08829546231803
Epoch: 2026-06-24T04:07Z
TLE epoch observation values (Epoch: 2026-06-24T04:07:13.554Z)
Latitude
-0.00004°
Longitude
6.82617°
Altitude
540.673 km
Speed
7.593 km/s
True Right ascension
22h 43m 51s
True Declination
0° 00' 00"
Sunlit
Object was in daylight at epoch
Visualization orbit readout
Latitude
Unknown
Longitude
Unknown
Altitude
Unknown
Speed
Unknown
Apparent Right ascension
Unknown
Apparent Declination
Unknown
Sunlit
N/A
Visualization observer readout
Local Sidereal Time
08:56:27
Azimuth
Unknown
Elevation
Unknown
Doppler factor
Unknown
Orbital elements
Apogee altitude
540.837 km
Perigee altitude
539.222 km
Semi-major axis
6,918.166 km
Eccentricity
0.00012
Inclination
53.1605°
RAAN
340.9654°
Arg. of periapsis
90.5709°
True anomaly
269.52823°
Mean anomaly
269.5416°
Eccentric anomaly
269.53491°
Mean motion
3.77187 °/min
Orbital period
95.44 mins
BSTAR
0.000012332
Loading maneuver chart data...
Computing Atmospheric mass density...
Loading historical data...
Loading historical data...
Loading historical data...
Loading historical data...
Loading historical data...
Loading historical data...
Loading historical data...

Documentation

Showing up to 5 results
|